Location: Unspecified
(17.6330°N, 0.0000°E)
Time: 09:32:36
(UTC+00:00)

Courier 1B Rocket - Pass Details

Date: 04 July 2019
Orbit: 920 x 1202 km, 28.3° (Epoch: 16 August)

Event Time Altitude Azimuth Distance (km) Brightness Sun altitude
Rises 21:59:11 0° 254° (WSW) 4,008 8.4 -39.3°
Reaches altitude 10° 22:01:59 10° 257° (WSW) 3,075 7.8 -39.7°
Enters shadow 22:05:26 29° 264° (W) 2,001 6.7 -40.2°
